TimeAKST,TemperatureF,Dew PointF,Humidity,Sea Level PressureIn,VisibilityMPH,Wind Direction,Wind SpeedMPH,Gust SpeedMPH,PrecipitationIn,Events,Conditions,WindDirDegrees,DateUTC
12:53 AM,5.0,-15.0,39,29.99,10.0,NNW,6.9,-,N/A,,Clear,340,2012-12-22 09:53:00
1:53 AM,1.9,-16.1,43,29.98,10.0,Variable,3.5,-,N/A,,Clear,0,2012-12-22 10:53:00
3:53 AM,3.0,-14.1,45,29.95,10.0,North,8.1,-,N/A,,Clear,350,2012-12-22 12:53:00
4:53 AM,10.0,-11.0,38,29.92,10.0,NNE,9.2,-,N/A,,Clear,30,2012-12-22 13:53:00
5:53 AM,14.0,-9.0,35,29.91,10.0,NNE,9.2,-,N/A,,Clear,30,2012-12-22 14:53:00
6:53 AM,10.0,-9.0,42,29.90,10.0,NE,9.2,-,N/A,,Clear,40,2012-12-22 15:53:00
7:53 AM,12.9,-9.0,37,29.88,10.0,East,5.8,-,N/A,,Clear,90,2012-12-22 16:53:00
8:53 AM,14.0,-8.0,37,29.86,10.0,North,12.7,19.6,N/A,,Clear,10,2012-12-22 17:53:00
9:53 AM,14.0,-8.0,37,29.84,10.0,NNE,11.5,-,N/A,,Clear,20,2012-12-22 18:53:00
10:53 AM,12.9,-9.0,37,29.84,10.0,NNE,3.5,-,N/A,,Clear,30,2012-12-22 19:53:00
11:53 AM,12.9,-8.0,39,29.84,10.0,North,6.9,-,N/A,,Clear,10,2012-12-22 20:53:00
12:53 PM,14.0,-8.0,37,29.83,10.0,Variable,4.6,-,N/A,,Clear,0,2012-12-22 21:53:00
1:53 PM,14.0,-8.0,37,29.82,10.0,North,4.6,-,N/A,,Clear,350,2012-12-22 22:53:00
2:53 PM,12.0,-9.0,39,29.81,10.0,North,4.6,-,N/A,,Clear,360,2012-12-22 23:53:00
3:53 PM,10.0,-9.9,40,29.81,10.0,North,4.6,-,N/A,,Clear,360,2012-12-23 00:53:00
4:53 PM,9.0,-9.9,42,29.81,10.0,North,4.6,-,N/A,,Clear,10,2012-12-23 01:53:00
5:53 PM,7.0,-9.9,46,29.81,10.0,North,4.6,-,N/A,,Clear,350,2012-12-23 02:53:00
6:53 PM,8.1,-11.0,42,29.82,10.0,North,5.8,-,N/A,,Clear,10,2012-12-23 03:53:00
7:53 PM,8.1,-11.0,42,29.82,10.0,North,6.9,-,N/A,,Clear,360,2012-12-23 04:53:00
8:53 PM,8.1,-11.0,42,29.81,10.0,NNE,9.2,-,N/A,,Clear,20,2012-12-23 05:53:00
9:53 PM,8.1,-11.0,42,29.82,10.0,North,9.2,-,N/A,,Clear,10,2012-12-23 06:53:00
10:53 PM,8.1,-11.0,42,29.83,10.0,NNE,10.4,17.3,N/A,,Clear,20,2012-12-23 07:53:00
11:53 PM,8.1,-11.9,40,29.82,10.0,NNE,10.4,17.3,N/A,,Clear,20,2012-12-23 08:53:00